| time (UTC) | temp F | wind direction | speed MPH | gust MPH | rain 1hr in | rain 24hr in | rain mn in | humidity % | barometer mb |
| 20260507071155 | 37 | 158 | 0.0 | 0.0 | 0.00 | 0.00 | 0.00 | 99 | 1011.1 |
| 20260507070653 | 38 | 159 | 0.0 | 0.0 | 0.00 | 0.00 | 0.00 | 99 | 1011.1 |
| 20260507070149 | 38 | 160 | 0.0 | 0.0 | 0.00 | 0.00 | 0.00 | 99 | 1011.0 |
| 20260507065645 | 39 | 160 | 0.0 | 0.0 | 0.00 | 0.00 | 0.00 | 99 | 1011.0 |
| 20260507065142 | 39 | 163 | 0.0 | 0.0 | 0.00 | 0.00 | 0.00 | 99 | 1011.4 |
| 20260507064640 | 39 | 161 | 0.0 | 0.0 | 0.00 | 0.00 | 0.00 | 99 | 1011.2 |
| 20260507064139 | 38 | 161 | 0.0 | 0.0 | 0.00 | 0.00 | 0.00 | 99 | 1011.5 |
| 20260507063636 | 39 | 160 | 0.0 | 0.0 | 0.00 | 0.00 | 0.00 | 99 | 1011.3 |
| 20260507063132 | 39 | 160 | 0.0 | 0.0 | 0.00 | 0.00 | 0.00 | 99 | 1011.4 |
| 20260507062629 | 39 | 160 | 0.0 | 0.0 | 0.00 | 0.00 | 0.00 | 99 | 1011.0 |
| 20260507062127 | 39 | 160 | 0.0 | 0.0 | 0.00 | 0.00 | 0.00 | 99 | 1011.4 |
| 20260507061624 | 39 | 160 | 0.0 | 0.0 | 0.00 | 0.00 | 0.00 | 99 | 1011.2 |
| 20260507061123 | 39 | 160 | 0.0 | 0.0 | 0.00 | 0.00 | 0.00 | 99 | 1011.1 |
| 20260507060620 | 39 | 161 | 0.0 | 0.0 | 0.00 | 0.00 | 0.00 | 99 | 1011.2 |
| 20260507060117 | 39 | 161 | 0.0 | 0.0 | 0.00 | 0.00 | 0.00 | 99 | 1011.4 |
| 20260507055612 | 39 | 161 | 0.0 | 0.0 | 0.00 | 0.00 | 0.00 | 99 | 1011.3 |
| 20260507055108 | 39 | 161 | 0.0 | 0.0 | 0.00 | 0.00 | 0.00 | 99 | 1011.4 |
| 20260507054604 | 39 | 161 | 0.0 | 0.0 | 0.00 | 0.00 | 0.00 | 99 | 1011.3 |
| 20260507054101 | 39 | 161 | 0.0 | 0.0 | 0.00 | 0.00 | 0.00 | 99 | 1011.2 |
| 20260507053559 | 40 | 160 | 0.0 | 0.0 | 0.00 | 0.00 | 0.00 | 99 | 1011.3 |
| 20260507053058 | 40 | 157 | 0.0 | 0.0 | 0.00 | 0.00 | 0.00 | 99 | 1011.3 |
| 20260507052555 | 40 | 160 | 0.0 | 0.0 | 0.00 | 0.00 | 0.00 | 99 | 1011.2 |
| 20260507052052 | 40 | 156 | 0.0 | 0.0 | 0.00 | 0.00 | 0.00 | 99 | 1011.3 |
| 20260507051549 | 40 | 157 | 0.0 | 0.0 | 0.00 | 0.00 | 0.00 | 99 | 1011.4 |
| 20260507051046 | 41 | 160 | 0.0 | 0.0 | 0.00 | 0.00 | 0.00 | 99 | 1011.4 |
| 20260507050542 | 41 | 161 | 0.0 | 0.0 | 0.00 | 0.00 | 0.00 | 99 | 1011.5 |
| 20260507050039 | 41 | 161 | 0.0 | 0.0 | 0.00 | 0.00 | 0.00 | 99 | 1011.5 |
| 20260507045536 | 41 | 160 | 0.0 | 0.0 | 0.00 | 0.00 | 0.00 | 99 | 1011.6 |
| 20260507045033 | 41 | 160 | 0.0 | 0.0 | 0.00 | 0.00 | 0.00 | 99 | 1011.6 |
| 20260507044530 | 42 | 161 | 0.0 | 0.0 | 0.00 | 0.00 | 0.00 | 99 | 1011.8 |
| 20260507044027 | 41 | 162 | 0.0 | 0.0 | 0.00 | 0.00 | 0.00 | 99 | 1011.5 |
| 20260507043522 | 41 | 161 | 0.0 | 0.0 | 0.00 | 0.00 | 0.00 | 99 | 1011.3 |
| 20260507043020 | 41 | 160 | 0.0 | 0.0 | 0.00 | 0.00 | 0.00 | 99 | 1011.3 |
| 20260507042516 | 41 | 161 | 0.0 | 0.0 | 0.00 | 0.00 | 0.00 | 99 | 1011.4 |
| 20260507042011 | 42 | 161 | 0.0 | 0.0 | 0.00 | 0.00 | 0.00 | 99 | 1011.5 |
| 20260507041509 | 42 | 161 | 0.0 | 0.0 | 0.00 | 0.00 | 0.00 | 99 | 1011.4 |
| 20260507041005 | 42 | 161 | 0.0 | 0.0 | 0.00 | 0.00 | 0.00 | 99 | 1011.4 |
| 20260507040501 | 42 | 161 | 0.0 | 0.0 | 0.00 | 0.00 | 0.00 | 99 | 1011.4 |
| 20260507035957 | 42 | 161 | 0.0 | 0.0 | 0.00 | 0.73 | 0.73 | 99 | 1011.3 |
| 20260507035454 | 42 | 161 | 0.0 | 0.0 | 0.00 | 0.73 | 0.73 | 99 | 1011.3 |
| 20260507034950 | 42 | 160 | 0.0 | 0.0 | 0.00 | 0.73 | 0.73 | 99 | 1011.2 |
| 20260507034447 | 42 | 159 | 0.0 | 0.0 | 0.00 | 0.73 | 0.73 | 99 | 1011.4 |
| 20260507033946 | 42 | 160 | 0.0 | 0.0 | 0.00 | 0.73 | 0.73 | 99 | 1011.5 |
| 20260507033443 | 43 | 161 | 0.0 | 0.0 | 0.00 | 0.73 | 0.73 | 99 | 1011.3 |
| 20260507032940 | 42 | 161 | 0.0 | 0.0 | 0.00 | 0.73 | 0.73 | 99 | 1011.2 |
| 20260507032437 | 43 | 161 | 0.0 | 0.0 | 0.00 | 0.73 | 0.73 | 99 | 1011.2 |
| 20260507031933 | 43 | 161 | 0.0 | 0.0 | 0.00 | 0.73 | 0.73 | 99 | 1011.5 |
| 20260507031430 | 43 | 161 | 0.0 | 0.0 | 0.00 | 0.73 | 0.73 | 99 | 1011.3 |
| 20260507030926 | 43 | 161 | 0.0 | 0.0 | 0.00 | 0.73 | 0.73 | 99 | 1011.6 |
| 20260507030424 | 43 | 159 | 0.0 | 0.0 | 0.00 | 0.73 | 0.73 | 99 | 1011.6 |
| 20260507025921 | 43 | 158 | 0.0 | 0.0 | 0.00 | 0.73 | 0.73 | 99 | 1011.5 |
| 20260507025418 | 44 | 159 | 0.0 | 0.0 | 0.00 | 0.73 | 0.73 | 99 | 1011.7 |
| 20260507024916 | 44 | 160 | 0.0 | 0.0 | 0.00 | 0.73 | 0.73 | 99 | 1011.3 |
| 20260507024413 | 44 | 161 | 0.0 | 0.0 | 0.00 | 0.73 | 0.73 | 99 | 1011.5 |
| 20260507023908 | 44 | 161 | 0.0 | 0.0 | 0.00 | 0.73 | 0.73 | 99 | 1011.5 |
| 20260507023406 | 44 | 161 | 0.0 | 0.0 | 0.00 | 0.73 | 0.73 | 99 | 1011.3 |
| 20260507022903 | 44 | 161 | 0.0 | 0.0 | 0.00 | 0.73 | 0.73 | 99 | 1011.4 |
| 20260507022359 | 44 | 161 | 0.0 | 0.0 | 0.00 | 0.73 | 0.73 | 99 | 1011.3 |
| 20260507021855 | 45 | 159 | 0.0 | 0.0 | 0.00 | 0.73 | 0.73 | 99 | 1011.4 |
| 20260507021350 | 44 | 161 | 0.0 | 0.0 | 0.00 | 0.73 | 0.73 | 98 | 1011.3 |
| 20260507020849 | 44 | 161 | 0.0 | 0.0 | 0.00 | 0.73 | 0.73 | 98 | 1011.2 |
| 20260507020345 | 44 | 161 | 0.0 | 0.0 | 0.00 | 0.73 | 0.73 | 98 | 1011.1 |
| 20260507015842 | 45 | 161 | 0.0 | 0.0 | 0.00 | 0.73 | 0.73 | 98 | 1011.1 |
| 20260507015340 | 45 | 161 | 0.0 | 0.0 | 0.00 | 0.73 | 0.73 | 98 | 1011.0 |
| 20260507014837 | 45 | 161 | 0.0 | 0.0 | 0.00 | 0.73 | 0.73 | 97 | 1010.9 |
| 20260507014333 | 45 | 161 | 0.0 | 0.0 | 0.00 | 0.73 | 0.73 | 97 | 1011.0 |
| 20260507013830 | 46 | 162 | 0.0 | 0.0 | 0.00 | 0.73 | 0.73 | 97 | 1010.9 |
| 20260507013327 | 46 | 161 | 0.0 | 0.0 | 0.00 | 0.73 | 0.73 | 97 | 1010.9 |
| 20260507012825 | 46 | 159 | 0.0 | 0.0 | 0.00 | 0.73 | 0.73 | 95 | 1010.7 |
| 20260507012320 | 46 | 161 | 0.0 | 0.0 | 0.00 | 0.73 | 0.73 | 94 | 1010.7 |
| 20260507011812 | 47 | 161 | 0.0 | 0.0 | 0.00 | 0.73 | 0.73 | 92 | 1010.4 |
| 20260507011309 | 47 | 161 | 0.0 | 0.0 | 0.00 | 0.73 | 0.73 | 91 | 1010.8 |
| 20260507010808 | 48 | 162 | 0.0 | 0.0 | 0.00 | 0.73 | 0.73 | 90 | 1010.7 |
| 20260507010304 | 48 | 161 | 0.0 | 0.0 | 0.00 | 0.73 | 0.73 | 87 | 1010.7 |
| 20260507005802 | 48 | 162 | 0.0 | 0.0 | 0.00 | 0.73 | 0.73 | 88 | 1010.5 |
| 20260507005258 | 49 | 162 | 0.0 | 0.0 | 0.00 | 0.73 | 0.73 | 86 | 1010.8 |
| 20260507004755 | 49 | 161 | 0.0 | 0.0 | 0.00 | 0.73 | 0.73 | 85 | 1010.5 |
| 20260507004252 | 50 | 161 | 0.0 | 0.0 | 0.00 | 0.73 | 0.73 | 84 | 1010.5 |
| 20260507003748 | 50 | 162 | 0.0 | 0.0 | 0.00 | 0.73 | 0.73 | 82 | 1010.3 |
| 20260507003244 | 51 | 161 | 0.0 | 0.0 | 0.00 | 0.73 | 0.73 | 83 | 1010.4 |
| 20260507002740 | 51 | 162 | 0.0 | 0.0 | 0.00 | 0.73 | 0.73 | 80 | 1010.4 |
| 20260507002236 | 52 | 161 | 0.0 | 0.0 | 0.00 | 0.73 | 0.73 | 80 | 1010.3 |
| 20260507001733 | 52 | 161 | 0.0 | 0.0 | 0.00 | 0.73 | 0.73 | 79 | 1010.1 |
| 20260507001231 | 53 | 161 | 0.0 | 0.0 | 0.00 | 0.73 | 0.73 | 79 | 1010.2 |
| 20260507000727 | 53 | 162 | 0.0 | 0.0 | 0.00 | 0.73 | 0.73 | 77 | 1009.9 |
| 20260507000222 | 54 | 164 | 0.0 | 0.0 | 0.00 | 0.73 | 0.73 | 78 | 1010.0 |
| 20260506235720 | 55 | 161 | 0.0 | 0.0 | 0.00 | 0.73 | 0.73 | 67 | 1009.9 |
| 20260506235215 | 56 | 161 | 0.0 | 0.0 | 0.00 | 0.73 | 0.73 | 70 | 1010.0 |
| 20260506234712 | 55 | 160 | 0.0 | 0.0 | 0.00 | 0.73 | 0.73 | 69 | 1010.1 |
| 20260506234209 | 55 | 161 | 0.0 | 0.0 | 0.00 | 0.73 | 0.73 | 67 | 1010.1 |
| 20260506233707 | 56 | 159 | 1.0 | 1.0 | 0.00 | 0.73 | 0.73 | 69 | 1009.9 |
| 20260506233203 | 57 | 166 | 1.0 | 1.0 | 0.00 | 0.73 | 0.73 | 65 | 1010.0 |
| 20260506232659 | 57 | 155 | 2.0 | 2.0 | 0.00 | 0.73 | 0.73 | 63 | 1009.9 |
| 20260506232155 | 57 | 165 | 2.0 | 2.0 | 0.00 | 0.73 | 0.73 | 61 | 1009.6 |
| 20260506231652 | 57 | 175 | 4.0 | 4.0 | 0.00 | 0.73 | 0.73 | 62 | 1009.6 |
| 20260506231151 | 57 | 170 | 1.0 | 1.0 | 0.00 | 0.73 | 0.73 | 61 | 1009.8 |
| 20260506230647 | 57 | 155 | 0.0 | 1.0 | 0.00 | 0.73 | 0.73 | 60 | 1010.0 |
| 20260506230144 | 57 | 137 | 0.0 | 2.0 | 0.00 | 0.73 | 0.73 | 63 | 1009.8 |
| 20260506225640 | 57 | 163 | 1.0 | 1.0 | 0.00 | 0.73 | 0.73 | 63 | 1010.0 |
| 20260506225137 | 57 | 154 | 2.0 | 2.0 | 0.00 | 0.73 | 0.73 | 63 | 1009.8 |
| 20260506224634 | 56 | 155 | 2.0 | 2.0 | 0.00 | 0.73 | 0.73 | 62 | 1009.6 |
| 20260506224130 | 56 | 157 | 2.0 | 3.0 | 0.00 | 0.73 | 0.73 | 61 | 1010.0 |
| 20260506223626 | 56 | 136 | 4.0 | 4.0 | 0.00 | 0.73 | 0.73 | 62 | 1010.1 |
| 20260506223122 | 56 | 147 | 2.0 | 2.0 | 0.00 | 0.73 | 0.73 | 61 | 1009.8 |
| 20260506222620 | 57 | 148 | 2.0 | 3.0 | 0.00 | 0.73 | 0.73 | 63 | 1010.1 |
| 20260506222116 | 57 | 164 | 3.0 | 4.0 | 0.00 | 0.73 | 0.73 | 60 | 1010.1 |
| 20260506221614 | 57 | 159 | 2.0 | 2.0 | 0.00 | 0.73 | 0.73 | 62 | 1010.0 |
| 20260506221112 | 57 | 161 | 1.0 | 1.0 | 0.00 | 0.73 | 0.73 | 61 | 1010.1 |
| 20260506220608 | 57 | 157 | 2.0 | 2.0 | 0.00 | 0.73 | 0.73 | 58 | 1010.1 |
| 20260506215600 | 57 | 170 | 2.0 | 2.0 | 0.00 | 0.73 | 0.73 | 60 | 1010.3 |
| 20260506215055 | 57 | 143 | 3.0 | 3.0 | 0.00 | 0.73 | 0.73 | 60 | 1010.3 |
| 20260506214553 | 57 | 145 | 2.0 | 2.0 | 0.00 | 0.73 | 0.73 | 58 | 1010.0 |
| 20260506214050 | 57 | 138 | 3.0 | 4.0 | 0.00 | 0.73 | 0.73 | 59 | 1010.2 |
| 20260506213548 | 57 | 142 | 2.0 | 3.0 | 0.00 | 0.73 | 0.73 | 60 | 1010.0 |
| 20260506213045 | 57 | 147 | 3.0 | 4.0 | 0.00 | 0.73 | 0.73 | 60 | 1009.9 |
| 20260506212542 | 57 | 145 | 3.0 | 3.0 | 0.00 | 0.73 | 0.73 | 60 | 1010.1 |
| 20260506212037 | 57 | 164 | 3.0 | 6.0 | 0.00 | 0.73 | 0.73 | 62 | 1009.8 |
| 20260506211533 | 58 | 123 | 1.0 | 2.0 | 0.00 | 0.73 | 0.73 | 60 | 1009.7 |
| 20260506211030 | 58 | 141 | 4.0 | 4.0 | 0.00 | 0.73 | 0.73 | 60 | 1009.6 |
| 20260506210527 | 58 | 188 | 2.0 | 3.0 | 0.00 | 0.73 | 0.73 | 59 | 1009.4 |
| 20260506210023 | 57 | 165 | 2.0 | 2.0 | 0.00 | 0.73 | 0.73 | 61 | 1009.8 |
| 20260506205520 | 57 | 158 | 1.0 | 2.0 | 0.00 | 0.73 | 0.73 | 59 | 1009.6 |
| 20260506205015 | 57 | 159 | 1.0 | 1.0 | 0.00 | 0.73 | 0.73 | 58 | 1009.7 |
| 20260506204514 | 58 | 191 | 6.0 | 8.0 | 0.00 | 0.73 | 0.73 | 60 | 1009.8 |
| 20260506204010 | 57 | 155 | 2.0 | 2.0 | 0.00 | 0.73 | 0.73 | 60 | 1009.8 |
| 20260506203508 | 58 | 129 | 3.0 | 4.0 | 0.00 | 0.73 | 0.73 | 60 | 1009.6 |
| 20260506203005 | 57 | 141 | 2.0 | 3.0 | 0.00 | 0.73 | 0.73 | 61 | 1009.9 |
| 20260506202502 | 57 | 162 | 1.0 | 1.0 | 0.00 | 0.73 | 0.73 | 60 | 1009.6 |
| 20260506201958 | 57 | 164 | 1.0 | 1.0 | 0.00 | 0.73 | 0.73 | 59 | 1009.6 |
| 20260506201456 | 57 | 173 | 2.0 | 3.0 | 0.00 | 0.73 | 0.73 | 59 | 1009.7 |
| 20260506200952 | 57 | 170 | 3.0 | 3.0 | 0.00 | 0.73 | 0.73 | 58 | 1009.8 |
| 20260506200449 | 57 | 181 | 3.0 | 3.0 | 0.00 | 0.73 | 0.73 | 58 | 1009.8 |
| 20260506195945 | 57 | 130 | 2.0 | 3.0 | 0.00 | 0.73 | 0.73 | 60 | 1009.7 |
| 20260506195442 | 57 | 148 | 3.0 | 4.0 | 0.00 | 0.73 | 0.73 | 59 | 1009.6 |
| 20260506194939 | 58 | 180 | 1.0 | 2.0 | 0.00 | 0.73 | 0.73 | 59 | 1009.8 |
| 20260506194436 | 58 | 183 | 2.0 | 3.0 | 0.00 | 0.73 | 0.73 | 57 | 1009.7 |
| 20260506193933 | 58 | 165 | 3.0 | 4.0 | 0.00 | 0.73 | 0.73 | 58 | 1009.7 |
| 20260506193430 | 59 | 163 | 1.0 | 1.0 | 0.00 | 0.73 | 0.73 | 56 | 1009.4 |
| 20260506192926 | 58 | 170 | 4.0 | 4.0 | 0.00 | 0.73 | 0.73 | 56 | 1009.5 |
| 20260506192423 | 59 | 165 | 1.0 | 1.0 | 0.00 | 0.73 | 0.73 | 56 | 1009.2 |
| 20260506191920 | 58 | 132 | 2.0 | 3.0 | 0.00 | 0.73 | 0.73 | 60 | 1009.5 |
| 20260506191417 | 58 | 216 | 4.0 | 6.0 | 0.00 | 0.73 | 0.73 | 54 | 1009.5 |
| 20260506190914 | 58 | 147 | 4.0 | 6.0 | 0.00 | 0.73 | 0.73 | 57 | 1009.8 |
| 20260506190410 | 58 | 159 | 2.0 | 3.0 | 0.00 | 0.73 | 0.73 | 55 | 1009.4 |
| 20260506185907 | 58 | 108 | 7.0 | 8.0 | 0.00 | 0.73 | 0.73 | 59 | 1009.5 |
| 20260506185404 | 58 | 158 | 4.0 | 4.0 | 0.00 | 0.73 | 0.73 | 60 | 1009.4 |
| 20260506184901 | 58 | 153 | 5.0 | 6.0 | 0.00 | 0.73 | 0.73 | 58 | 1009.1 |
| 20260506184358 | 58 | 175 | 5.0 | 6.0 | 0.00 | 0.73 | 0.73 | 56 | 1009.1 |
| 20260506183855 | 59 | 122 | 2.0 | 2.0 | 0.00 | 0.73 | 0.73 | 61 | 1009.2 |
| 20260506183350 | 59 | 187 | 4.0 | 4.0 | 0.00 | 0.73 | 0.73 | 54 | 1009.3 |
| 20260506182848 | 59 | 159 | 1.0 | 2.0 | 0.00 | 0.73 | 0.73 | 61 | 1009.0 |
| 20260506182345 | 60 | 153 | 2.0 | 3.0 | 0.00 | 0.73 | 0.73 | 59 | 1009.2 |
| 20260506181842 | 60 | 151 | 4.0 | 7.0 | 0.00 | 0.73 | 0.73 | 57 | 1009.4 |
| 20260506181340 | 60 | 143 | 3.0 | 4.0 | 0.00 | 0.73 | 0.73 | 56 | 1009.4 |
| 20260506180837 | 59 | 163 | 1.0 | 1.0 | 0.00 | 0.73 | 0.73 | 64 | 1009.3 |
| 20260506180333 | 59 | 110 | 7.0 | 9.0 | 0.00 | 0.73 | 0.73 | 67 | 1009.2 |
| 20260506175829 | 60 | 155 | 1.0 | 2.0 | 0.00 | 0.73 | 0.73 | 62 | 1009.3 |
| 20260506175327 | 58 | 161 | 4.0 | 6.0 | 0.00 | 0.73 | 0.73 | 62 | 1009.4 |
| 20260506174824 | 58 | 129 | 2.0 | 3.0 | 0.00 | 0.73 | 0.73 | 63 | 1009.7 |
| 20260506174321 | 58 | 134 | 6.0 | 8.0 | 0.00 | 0.73 | 0.73 | 64 | 1010.0 |
| 20260506173819 | 58 | 144 | 3.0 | 3.0 | 0.00 | 0.73 | 0.73 | 64 | 1009.6 |
| 20260506173315 | 58 | 180 | 7.0 | 8.0 | 0.00 | 0.73 | 0.73 | 60 | 1009.5 |
| 20260506172812 | 58 | 142 | 2.0 | 3.0 | 0.00 | 0.73 | 0.73 | 64 | 1009.7 |
| 20260506172309 | 58 | 168 | 4.0 | 6.0 | 0.00 | 0.73 | 0.73 | 64 | 1009.6 |
| 20260506171806 | 58 | 137 | 5.0 | 8.0 | 0.00 | 0.73 | 0.73 | 65 | 1009.8 |
| 20260506171303 | 57 | 157 | 0.0 | 1.0 | 0.00 | 0.73 | 0.73 | 68 | 1009.6 |
| 20260506170801 | 57 | 106 | 8.0 | 9.0 | 0.00 | 0.73 | 0.73 | 66 | 1009.8 |
| 20260506170257 | 57 | 130 | 4.0 | 4.0 | 0.00 | 0.73 | 0.73 | 66 | 1009.8 |
| 20260506165756 | 57 | 190 | 5.0 | 6.0 | 0.00 | 0.73 | 0.73 | 63 | 1009.9 |
| 20260506165253 | 57 | 135 | 1.0 | 2.0 | 0.00 | 0.73 | 0.73 | 67 | 1010.0 |
| 20260506164750 | 57 | 175 | 2.0 | 3.0 | 0.00 | 0.73 | 0.73 | 69 | 1009.7 |
| 20260506164246 | 57 | 113 | 5.0 | 6.0 | 0.00 | 0.73 | 0.73 | 67 | 1009.9 |
| 20260506163743 | 56 | 142 | 3.0 | 4.0 | 0.00 | 0.73 | 0.73 | 67 | 1009.8 |
| 20260506163238 | 56 | 127 | 3.0 | 4.0 | 0.00 | 0.73 | 0.73 | 70 | 1009.9 |
| 20260506162734 | 57 | 177 | 2.0 | 3.0 | 0.00 | 0.73 | 0.73 | 68 | 1009.6 |
| 20260506162232 | 56 | 148 | 3.0 | 4.0 | 0.00 | 0.73 | 0.73 | 68 | 1009.9 |
| 20260506161729 | 56 | 129 | 3.0 | 4.0 | 0.00 | 0.73 | 0.73 | 74 | 1009.7 |
| 20260506161226 | 55 | 164 | 4.0 | 4.0 | 0.00 | 0.73 | 0.73 | 70 | 1009.9 |
| 20260506160724 | 55 | 116 | 7.0 | 8.0 | 0.00 | 0.73 | 0.73 | 69 | 1009.7 |
| 20260506160220 | 55 | 139 | 6.0 | 7.0 | 0.00 | 0.73 | 0.73 | 68 | 1009.8 |
| 20260506155719 | 57 | 170 | 4.0 | 7.0 | 0.00 | 0.73 | 0.73 | 66 | 1009.7 |
| 20260506155216 | 55 | 151 | 1.0 | 3.0 | 0.00 | 0.73 | 0.73 | 72 | 1009.6 |
| 20260506153323 | 55 | 151 | 6.0 | 7.0 | 0.00 | 0.73 | 0.73 | 70 | 1009.9 |
| 20260506152820 | 54 | 181 | 5.0 | 8.0 | 0.00 | 0.73 | 0.73 | 67 | 1009.9 |
| 20260506152317 | 55 | 160 | 4.0 | 6.0 | 0.00 | 0.73 | 0.73 | 68 | 1010.1 |
| 20260506151816 | 55 | 152 | 2.0 | 3.0 | 0.00 | 0.73 | 0.73 | 69 | 1009.7 |
| 20260506151312 | 54 | 166 | 2.0 | 3.0 | 0.00 | 0.73 | 0.73 | 70 | 1009.3 |
| 20260506150809 | 54 | 167 | 2.0 | 2.0 | 0.00 | 0.73 | 0.73 | 68 | 1009.3 |
| 20260506150307 | 55 | 220 | 4.0 | 7.0 | 0.00 | 0.73 | 0.73 | 72 | 1009.2 |
| 20260506145803 | 54 | 175 | 1.0 | 2.0 | 0.00 | 0.73 | 0.73 | 77 | 1009.0 |
| 20260506145259 | 53 | 170 | 3.0 | 4.0 | 0.00 | 0.73 | 0.73 | 73 | 1009.0 |
| 20260506144757 | 53 | 189 | 4.0 | 7.0 | 0.00 | 0.73 | 0.73 | 75 | 1008.8 |
| 20260506144254 | 53 | 187 | 2.0 | 2.0 | 0.00 | 0.73 | 0.73 | 77 | 1008.7 |
| 20260506143752 | 52 | 190 | 5.0 | 6.0 | 0.00 | 0.73 | 0.73 | 78 | 1008.9 |
| 20260506143248 | 52 | 156 | 2.0 | 3.0 | 0.00 | 0.73 | 0.73 | 79 | 1008.5 |
| 20260506142747 | 51 | 160 | 1.0 | 2.0 | 0.00 | 0.73 | 0.73 | 80 | 1008.8 |
| 20260506142245 | 51 | 159 | 4.0 | 4.0 | 0.00 | 0.73 | 0.73 | 79 | 1008.8 |
| 20260506141743 | 51 | 88 | 8.0 | 9.0 | 0.00 | 0.73 | 0.73 | 82 | 1009.0 |
| 20260506141241 | 51 | 115 | 3.0 | 4.0 | 0.00 | 0.73 | 0.73 | 85 | 1008.7 |
| 20260506140738 | 51 | 153 | 3.0 | 4.0 | 0.00 | 0.73 | 0.73 | 83 | 1008.8 |
| 20260506140235 | 50 | 139 | 3.0 | 4.0 | 0.00 | 0.73 | 0.73 | 86 | 1008.8 |
| 20260506135732 | 50 | 86 | 7.0 | 9.0 | 0.00 | 0.73 | 0.73 | 86 | 1008.4 |
| 20260506135228 | 50 | 156 | 4.0 | 4.0 | 0.00 | 0.73 | 0.73 | 87 | 1008.7 |
| 20260506134725 | 49 | 138 | 4.0 | 6.0 | 0.00 | 0.73 | 0.73 | 89 | 1008.8 |
| 20260506134221 | 48 | 145 | 2.0 | 2.0 | 0.00 | 0.73 | 0.73 | 90 | 1008.9 |
| 20260506133719 | 48 | 178 | 4.0 | 4.0 | 0.00 | 0.73 | 0.73 | 90 | 1008.7 |
| 20260506133215 | 48 | 133 | 5.0 | 7.0 | 0.00 | 0.73 | 0.73 | 90 | 1008.6 |
| 20260506132712 | 48 | 178 | 4.0 | 6.0 | 0.00 | 0.73 | 0.73 | 91 | 1008.5 |
| 20260506132209 | 48 | 119 | 5.0 | 7.0 | 0.00 | 0.73 | 0.73 | 90 | 1008.4 |
| 20260506131707 | 47 | 177 | 1.0 | 2.0 | 0.00 | 0.73 | 0.73 | 92 | 1008.6 |
| 20260506131203 | 47 | 154 | 2.0 | 3.0 | 0.00 | 0.73 | 0.73 | 90 | 1008.5 |
| 20260506130700 | 47 | 176 | 1.0 | 2.0 | 0.00 | 0.73 | 0.73 | 92 | 1008.5 |
| 20260506130157 | 47 | 141 | 2.0 | 2.0 | 0.00 | 0.73 | 0.73 | 91 | 1008.4 |
| 20260506125655 | 47 | 134 | 3.0 | 3.0 | 0.00 | 0.73 | 0.73 | 90 | 1008.2 |
| 20260506125153 | 47 | 123 | 3.0 | 4.0 | 0.00 | 0.73 | 0.73 | 91 | 1008.4 |
| 20260506124650 | 48 | 143 | 2.0 | 4.0 | 0.00 | 0.73 | 0.73 | 92 | 1007.8 |
| 20260506124148 | 47 | 164 | 2.0 | 2.0 | 0.00 | 0.73 | 0.73 | 92 | 1007.8 |
| 20260506123645 | 47 | 149 | 2.0 | 3.0 | 0.00 | 0.73 | 0.73 | 92 | 1007.8 |
| 20260506123144 | 47 | 142 | 3.0 | 3.0 | 0.00 | 0.73 | 0.73 | 92 | 1008.2 |
| 20260506122640 | 47 | 147 | 0.0 | 1.0 | 0.00 | 0.73 | 0.73 | 92 | 1007.9 |
| 20260506122138 | 47 | 135 | 2.0 | 3.0 | 0.00 | 0.73 | 0.73 | 93 | 1008.0 |
| 20260506121635 | 46 | 165 | 3.0 | 3.0 | 0.00 | 0.73 | 0.73 | 93 | 1007.6 |
| 20260506121131 | 46 | 158 | 2.0 | 2.0 | 0.00 | 0.73 | 0.73 | 94 | 1007.8 |
| 20260506120630 | 46 | 178 | 4.0 | 4.0 | 0.00 | 0.73 | 0.73 | 95 | 1007.7 |
| 20260506120127 | 46 | 154 | 3.0 | 3.0 | 0.00 | 0.73 | 0.73 | 95 | 1007.6 |
| 20260506115625 | 46 | 139 | 3.0 | 3.0 | 0.00 | 0.73 | 0.73 | 96 | 1007.4 |
| 20260506115123 | 46 | 152 | 4.0 | 6.0 | 0.00 | 0.73 | 0.73 | 95 | 1007.0 |
| 20260506114620 | 45 | 158 | 0.0 | 0.0 | 0.00 | 0.73 | 0.73 | 96 | 1006.9 |
| 20260506114118 | 45 | 152 | 0.0 | 0.0 | 0.00 | 0.73 | 0.73 | 96 | 1006.6 |
| 20260506113616 | 45 | 161 | 2.0 | 3.0 | 0.00 | 0.73 | 0.73 | 96 | 1006.7 |
| 20260506113113 | 45 | 176 | 1.0 | 2.0 | 0.00 | 0.73 | 0.73 | 96 | 1006.6 |
| 20260506112609 | 45 | 150 | 0.0 | 0.0 | 0.00 | 0.73 | 0.73 | 97 | 1006.5 |
| 20260506112107 | 45 | 162 | 2.0 | 2.0 | 0.00 | 0.73 | 0.73 | 97 | 1006.6 |
| 20260506111604 | 45 | 154 | 1.0 | 1.0 | 0.00 | 0.73 | 0.73 | 97 | 1006.6 |
| 20260506111102 | 45 | 155 | 2.0 | 3.0 | 0.00 | 0.73 | 0.73 | 97 | 1006.5 |
| 20260506110559 | 45 | 145 | 2.0 | 3.0 | 0.00 | 0.73 | 0.73 | 98 | 1006.8 |
| 20260506110056 | 45 | 131 | 4.0 | 6.0 | 0.00 | 0.73 | 0.73 | 98 | 1006.7 |
| 20260506105552 | 45 | 137 | 4.0 | 4.0 | 0.00 | 0.73 | 0.73 | 99 | 1006.2 |
| 20260506105050 | 45 | 153 | 2.0 | 2.0 | 0.00 | 0.73 | 0.73 | 99 | 1005.9 |
| 20260506104548 | 45 | 162 | 0.0 | 1.0 | 0.00 | 0.73 | 0.73 | 99 | 1006.2 |
| 20260506104045 | 45 | 168 | 1.0 | 1.0 | 0.00 | 0.73 | 0.73 | 99 | 1006.2 |
| 20260506103542 | 45 | 154 | 1.0 | 1.0 | 0.00 | 0.73 | 0.73 | 99 | 1006.4 |
| 20260506103039 | 45 | 144 | 3.0 | 3.0 | 0.00 | 0.73 | 0.73 | 99 | 1006.5 |
| 20260506102538 | 45 | 159 | 1.0 | 2.0 | 0.00 | 0.73 | 0.73 | 99 | 1006.0 |
| 20260506102035 | 45 | 144 | 5.0 | 7.0 | 0.00 | 0.73 | 0.73 | 99 | 1005.7 |
| 20260506101531 | 45 | 113 | 4.0 | 4.0 | 0.00 | 0.73 | 0.73 | 99 | 1005.5 |
| 20260506101028 | 45 | 162 | 2.0 | 2.0 | 0.00 | 0.73 | 0.73 | 99 | 1005.3 |
| 20260506100526 | 45 | 147 | 3.0 | 4.0 | 0.00 | 0.73 | 0.73 | 99 | 1005.4 |
| 20260506100024 | 45 | 164 | 3.0 | 3.0 | 0.00 | 0.73 | 0.73 | 99 | 1005.4 |
| 20260506095523 | 45 | 145 | 2.0 | 2.0 | 0.00 | 0.73 | 0.73 | 99 | 1005.4 |
| 20260506095018 | 45 | 157 | 1.0 | 1.0 | 0.00 | 0.73 | 0.73 | 99 | 1005.3 |
| 20260506094517 | 45 | 159 | 0.0 | 1.0 | 0.00 | 0.73 | 0.73 | 99 | 1005.4 |
| 20260506094014 | 45 | 160 | 0.0 | 1.0 | 0.00 | 0.73 | 0.73 | 99 | 1005.4 |
| 20260506093513 | 45 | 159 | 2.0 | 2.0 | 0.00 | 0.73 | 0.73 | 99 | 1005.3 |
| 20260506093010 | 44 | 168 | 2.0 | 2.0 | 0.00 | 0.73 | 0.73 | 99 | 1005.2 |
| 20260506092508 | 44 | 182 | 2.0 | 3.0 | 0.00 | 0.73 | 0.73 | 99 | 1004.9 |
| 20260506092003 | 44 | 160 | 1.0 | 1.0 | 0.00 | 0.73 | 0.73 | 99 | 1004.7 |
| 20260506091502 | 44 | 166 | 1.0 | 2.0 | 0.00 | 0.73 | 0.73 | 99 | 1004.8 |
| 20260506090959 | 44 | 134 | 2.0 | 2.0 | 0.00 | 0.73 | 0.73 | 99 | 1004.9 |
| 20260506090457 | 44 | 158 | 1.0 | 2.0 | 0.00 | 0.73 | 0.73 | 99 | 1004.5 |
| 20260506085953 | 44 | 164 | 0.0 | 1.0 | 0.00 | 0.73 | 0.73 | 99 | 1004.6 |
| 20260506085450 | 44 | 154 | 4.0 | 4.0 | 0.00 | 0.73 | 0.73 | 99 | 1004.9 |
| 20260506084946 | 44 | 162 | 1.0 | 2.0 | 0.00 | 0.73 | 0.73 | 99 | 1005.0 |
| 20260506084443 | 44 | 145 | 2.0 | 2.0 | 0.07 | 0.73 | 0.73 | 99 | 1005.2 |
| 20260506083939 | 44 | 151 | 2.0 | 3.0 | 0.07 | 0.73 | 0.73 | 99 | 1005.1 |
| 20260506083437 | 44 | 161 | 1.0 | 1.0 | 0.00 | 0.72 | 0.72 | 99 | 1004.9 |
| 20260506082934 | 44 | 161 | 2.0 | 2.0 | 0.00 | 0.72 | 0.72 | 99 | 1004.9 |
| 20260506082431 | 44 | 156 | 3.0 | 4.0 | 0.00 | 0.72 | 0.72 | 99 | 1004.8 |
| 20260506081926 | 44 | 154 | 0.0 | 1.0 | 0.00 | 0.72 | 0.72 | 99 | 1004.7 |
| 20260506081425 | 45 | 155 | 2.0 | 3.0 | 0.00 | 0.72 | 0.72 | 99 | 1004.7 |
| 20260506080922 | 44 | 163 | 4.0 | 4.0 | 0.05 | 0.72 | 0.72 | 99 | 1004.5 |
| 20260506080419 | 44 | 158 | 1.0 | 2.0 | 0.05 | 0.72 | 0.72 | 99 | 1004.4 |
| 20260506073403 | 46 | 159 | 0.0 | 1.0 | 0.07 | 0.67 | 0.67 | 99 | 1004.8 |
| 20260506072900 | 46 | 139 | 2.0 | 3.0 | 0.12 | 0.66 | 0.66 | 99 | 1004.8 |
| 20260506072357 | 46 | 157 | 1.0 | 2.0 | 0.24 | 0.66 | 0.66 | 99 | 1004.7 |
| 20260506071855 | 46 | 150 | 3.0 | 4.0 | 0.31 | 0.64 | 0.64 | 99 | 1004.7 |
| 20260506071353 | 46 | 164 | 3.0 | 4.0 | 0.31 | 0.62 | 0.62 | 99 | 1004.4 |